owner,sensor,date,latitude,longitude,relative_humidity,qcFlag 
DISL,ioos:station:DISL:BSCA:1,2018-03-02T14:30:00Z,30.3288,-87.8293,78.4,1111122 
DISL,ioos:station:DISL:BSCA:1,2018-03-02T15:30:00Z,30.3288,-87.8293,64.29,1111122 
DISL,ioos:station:DISL:BSCA:1,2018-03-02T16:29:00Z,30.3288,-87.8293,53.51,1111122 
DISL,ioos:station:DISL:BSCA:1,2018-03-02T17:29:00Z,30.3288,-87.8293,43.15,1111122 
DISL,ioos:station:DISL:BSCA:1,2018-03-02T18:29:00Z,30.3288,-87.8293,41.73,1111122 
DISL,ioos:station:DISL:BSCA:1,2018-03-02T19:30:00Z,30.3288,-87.8293,32.3,1111122 
DISL,ioos:station:DISL:BSCA:1,2018-03-02T20:29:00Z,30.3288,-87.8293,25.69,1111122 
DISL,ioos:station:DISL:BSCA:1,2018-03-02T21:29:00Z,30.3288,-87.8293,23.99,1111122 
DISL,ioos:station:DISL:BSCA:1,2018-03-02T22:29:00Z,30.3288,-87.8293,23.45,1111122 
DISL,ioos:station:DISL:BSCA:1,2018-03-02T23:29:00Z,30.3288,-87.8293,29.01,1111122 
DISL,ioos:station:DISL:BSCA:1,2018-03-03T00:29:00Z,30.3288,-87.8293,35.32,1111122 
DISL,ioos:station:DISL:BSCA:1,2018-03-03T01:29:00Z,30.3288,-87.8293,36.34,1111122 
DISL,ioos:station:DISL:BSCA:1,2018-03-03T02:30:00Z,30.3288,-87.8293,42.39,1111122 
DISL,ioos:station:DISL:BSCA:1,2018-03-03T03:29:00Z,30.3288,-87.8293,49.51,1111122 
DISL,ioos:station:DISL:BSCA:1,2018-03-03T04:29:00Z,30.3288,-87.8293,52.29,1111122 
DISL,ioos:station:DISL:BSCA:1,2018-03-03T05:30:00Z,30.3288,-87.8293,54.05,1111122 
DISL,ioos:station:DISL:BSCA:1,2018-03-03T06:29:00Z,30.3288,-87.8293,54.85,1111122 
DISL,ioos:station:DISL:BSCA:1,2018-03-03T07:29:00Z,30.3288,-87.8293,55.8,1111122 
DISL,ioos:station:DISL:BSCA:1,2018-03-03T08:30:00Z,30.3288,-87.8293,56.58,1111122 
DISL,ioos:station:DISL:BSCA:1,2018-03-03T09:30:00Z,30.3288,-87.8293,59.02,1111122 
DISL,ioos:station:DISL:BSCA:1,2018-03-03T10:30:00Z,30.3288,-87.8293,65.6,1111122 
DISL,ioos:station:DISL:BSCA:1,2018-03-03T11:30:00Z,30.3288,-87.8293,61.95,1111122 
DISL,ioos:station:DISL:BSCA:1,2018-03-03T12:30:00Z,30.3288,-87.8293,62.63,1111122 
DISL,ioos:station:DISL:BSCA:1,2018-03-03T13:32:00Z,30.3288,-87.8293,61.03,1111122 
DISL,ioos:station:DISL:BSCA:1,2018-03-03T14:30:00Z,30.3288,-87.8293,50.75,1111122 
DISL,ioos:station:DISL:BSCA:1,2018-03-03T15:00:00Z,30.3288,-87.8293,38.26,1111122 
DISL,ioos:station:DISL:BSCA:1,2018-03-03T15:35:00Z,30.3288,-87.8293,37.5,1111122 
DISL,ioos:station:DISL:BSCA:1,2018-03-03T16:07:00Z,30.3288,-87.8293,29.84,1111122 
DISL,ioos:station:DISL:BSCA:1,2018-03-04T05:00:00Z,30.3288,-87.8293,36.22,1111122 
DISL,ioos:station:DISL:BSCA:1,2018-03-04T06:00:00Z,30.3288,-87.8293,43.78,1111122 
DISL,ioos:station:DISL:BSCA:1,2018-03-04T06:30:00Z,30.3288,-87.8293,46.22,1111122 
DISL,ioos:station:DISL:BSCA:1,2018-03-04T08:00:00Z,30.3288,-87.8293,45.01,1111122 
DISL,ioos:station:DISL:BSCA:1,2018-03-04T09:00:00Z,30.3288,-87.8293,44.27,1111122 
DISL,ioos:station:DISL:BSCA:1,2018-03-04T10:00:00Z,30.3288,-87.8293,41.11,1111122 
DISL,ioos:station:DISL:BSCA:1,2018-03-04T11:02:00Z,30.3288,-87.8293,44.0,1111122 
DISL,ioos:station:DISL:BSCA:1,2018-03-04T12:00:00Z,30.3288,-87.8293,39.62,1111122 
DISL,ioos:station:DISL:BSCA:1,2018-03-04T13:00:00Z,30.3288,-87.8293,48.3,1111122 
DISL,ioos:station:DISL:BSCA:1,2018-03-04T14:00:00Z,30.3288,-87.8293,41.55,1111122 
DISL,ioos:station:DISL:BSCA:1,2018-03-04T15:00:00Z,30.3288,-87.8293,34.25,1111122 
DISL,ioos:station:DISL:BSCA:1,2018-03-05T01:00:00Z,30.3288,-87.8293,57.56,1111122 
DISL,ioos:station:DISL:BSCA:1,2018-03-05T02:00:00Z,30.3288,-87.8293,56.34,1111122 
DISL,ioos:station:DISL:BSCA:1,2018-03-05T03:00:00Z,30.3288,-87.8293,54.55,1111122 
DISL,ioos:station:DISL:BSCA:1,2018-03-05T04:00:00Z,30.3288,-87.8293,80.4,1111122 
DISL,ioos:station:DISL:BSCA:1,2018-03-05T05:00:00Z,30.3288,-87.8293,76.43,1111122 
DISL,ioos:station:DISL:BSCA:1,2018-03-05T06:00:00Z,30.3288,-87.8293,78.06,1111122 
DISL,ioos:station:DISL:BSCA:1,2018-03-05T07:00:00Z,30.3288,-87.8293,75.42,1111122 
DISL,ioos:station:DISL:BSCA:1,2018-03-05T08:00:00Z,30.3288,-87.8293,75.42,1111122 
DISL,ioos:station:DISL:BSCA:1,2018-03-05T09:00:00Z,30.3288,-87.8293,81.2,1111122 
DISL,ioos:station:DISL:BSCA:1,2018-03-05T10:00:00Z,30.3288,-87.8293,58.8,1111122 
DISL,ioos:station:DISL:BSCA:1,2018-03-05T11:00:00Z,30.3288,-87.8293,57.09,1111122 
DISL,ioos:station:DISL:BSCA:1,2018-03-05T12:00:00Z,30.3288,-87.8293,59.25,1111122 
DISL,ioos:station:DISL:BSCA:1,2018-03-05T14:00:00Z,30.3288,-87.8293,61.15,1111122 
DISL,ioos:station:DISL:BSCA:1,2018-03-05T15:00:00Z,30.3288,-87.8293,58.34,1111122 
DISL,ioos:station:DISL:BSCA:1,2018-03-05T15:56:00Z,30.3288,-87.8293,61.28,1111122 
DISL,ioos:station:DISL:BSCA:1,2018-03-05T17:00:00Z,30.3288,-87.8293,61.49,1111122 
DISL,ioos:station:DISL:BSCA:1,2018-03-05T18:00:00Z,30.3288,-87.8293,58.97,1111122 
DISL,ioos:station:DISL:BSCA:1,2018-03-05T19:00:00Z,30.3288,-87.8293,61.27,1111122 
DISL,ioos:station:DISL:BSCA:1,2018-03-05T20:00:00Z,30.3288,-87.8293,59.01,1111122 
DISL,ioos:station:DISL:BSCA:1,2018-03-05T21:00:00Z,30.3288,-87.8293,57.96,1111122 
DISL,ioos:station:DISL:BSCA:1,2018-03-05T22:00:00Z,30.3288,-87.8293,56.23,1111122 
DISL,ioos:station:DISL:BSCA:1,2018-03-05T23:00:00Z,30.3288,-87.8293,64.2,1111122 
DISL,ioos:station:DISL:BSCA:1,2018-03-05T23:54:00Z,30.3288,-87.8293,63.76,1111122 
DISL,ioos:station:DISL:BSCA:1,2018-03-06T00:30:00Z,30.3288,-87.8293,68.75,1111122 
DISL,ioos:station:DISL:BSCA:1,2018-03-06T01:40:00Z,30.3288,-87.8293,69.66,1111122 
DISL,ioos:station:DISL:BSCA:1,2018-03-06T02:32:00Z,30.3288,-87.8293,72.81,1111122 
DISL,ioos:station:DISL:BSCA:1,2018-03-06T03:30:00Z,30.3288,-87.8293,74.2,1111122 
DISL,ioos:station:DISL:BSCA:1,2018-03-07T00:30:00Z,30.3288,-87.8293,56.93,1111122 
DISL,ioos:station:DISL:BSCA:1,2018-03-07T01:43:00Z,30.3288,-87.8293,57.02,1111122 
DISL,ioos:station:DISL:BSCA:1,2018-03-07T02:30:00Z,30.3288,-87.8293,56.96,1111122 
DISL,ioos:station:DISL:BSCA:1,2018-03-07T03:30:00Z,30.3288,-87.8293,49.67,1111122 
DISL,ioos:station:DISL:BSCA:1,2018-03-07T04:30:00Z,30.3288,-87.8293,45.57,1111122 
DISL,ioos:station:DISL:BSCA:1,2018-03-07T05:30:00Z,30.3288,-87.8293,40.79,1111122 
DISL,ioos:station:DISL:BSCA:1,2018-03-07T06:30:00Z,30.3288,-87.8293,42.59,1111122 
DISL,ioos:station:DISL:BSCA:1,2018-03-07T08:00:00Z,30.3288,-87.8293,37.71,1111122 
DISL,ioos:station:DISL:BSCA:1,2018-03-07T08:30:00Z,30.3288,-87.8293,36.76,1111122 
DISL,ioos:station:DISL:BSCA:1,2018-03-07T09:30:00Z,30.3288,-87.8293,30.89,1111122 
DISL,ioos:station:DISL:BSCA:1,2018-03-07T10:31:00Z,30.3288,-87.8293,46.83,1111122 
DISL,ioos:station:DISL:BSCA:1,2018-03-07T11:33:00Z,30.3288,-87.8293,41.61,1111122 
DISL,ioos:station:DISL:BSCA:1,2018-03-07T12:39:00Z,30.3288,-87.8293,39.55,1111122 
DISL,ioos:station:DISL:BSCA:1,2018-03-07T13:42:00Z,30.3288,-87.8293,40.81,1111122 
DISL,ioos:station:DISL:BSCA:1,2018-03-07T14:50:00Z,30.3288,-87.8293,42.64,1111122 
DISL,ioos:station:DISL:BSCA:1,2018-03-07T15:52:00Z,30.3288,-87.8293,46.12,1111122 
DISL,ioos:station:DISL:BSCA:1,2018-03-07T16:48:00Z,30.3288,-87.8293,47.59,1111122 
DISL,ioos:station:DISL:BSCA:1,2018-03-07T18:00:00Z,30.3288,-87.8293,39.41,1111122 
DISL,ioos:station:DISL:BSCA:1,2018-03-08T00:30:00Z,30.3288,-87.8293,33.74,1111122 
DISL,ioos:station:DISL:BSCA:1,2018-03-08T01:30:00Z,30.3288,-87.8293,45.3,1111122 
DISL,ioos:station:DISL:BSCA:1,2018-03-08T02:30:00Z,30.3288,-87.8293,50.41,1111122 
DISL,ioos:station:DISL:BSCA:1,2018-03-08T03:30:00Z,30.3288,-87.8293,49.53,1111122 
DISL,ioos:station:DISL:BSCA:1,2018-03-08T04:30:00Z,30.3288,-87.8293,53.66,1111122 
DISL,ioos:station:DISL:BSCA:1,2018-03-08T05:30:00Z,30.3288,-87.8293,52.2,1111122 
DISL,ioos:station:DISL:BSCA:1,2018-03-08T06:30:00Z,30.3288,-87.8293,55.5,1111122 
DISL,ioos:station:DISL:BSCA:1,2018-03-08T07:30:00Z,30.3288,-87.8293,54.48,1111122 
DISL,ioos:station:DISL:BSCA:1,2018-03-08T08:30:00Z,30.3288,-87.8293,60.53,1111122 
DISL,ioos:station:DISL:BSCA:1,2018-03-08T09:30:00Z,30.3288,-87.8293,60.74,1111122 
DISL,ioos:station:DISL:BSCA:1,2018-03-08T10:04:00Z,30.3288,-87.8293,62.5,1111122 
DISL,ioos:station:DISL:BSCA:1,2018-03-08T11:00:00Z,30.3288,-87.8293,68.54,1111122 
DISL,ioos:station:DISL:BSCA:1,2018-03-08T12:31:00Z,30.3288,-87.8293,68.48,1111122 
DISL,ioos:station:DISL:BSCA:1,2018-03-08T13:53:00Z,30.3288,-87.8293,61.47,1111122 
DISL,ioos:station:DISL:BSCA:1,2018-03-09T00:30:00Z,30.3288,-87.8293,31.81,1111122 
DISL,ioos:station:DISL:BSCA:1,2018-03-09T01:37:00Z,30.3288,-87.8293,37.3,1111122 
DISL,ioos:station:DISL:BSCA:1,2018-03-09T02:30:00Z,30.3288,-87.8293,45.57,1111122 
DISL,ioos:station:DISL:BSCA:1,2018-03-09T03:30:00Z,30.3288,-87.8293,46.66,1111122 
DISL,ioos:station:DISL:BSCA:1,2018-03-09T04:30:00Z,30.3288,-87.8293,52.64,1111122 
DISL,ioos:station:DISL:BSCA:1,2018-03-09T05:30:00Z,30.3288,-87.8293,46.2,1111122 
DISL,ioos:station:DISL:BSCA:1,2018-03-09T06:30:00Z,30.3288,-87.8293,49.46,1111122 
DISL,ioos:station:DISL:BSCA:1,2018-03-09T07:30:00Z,30.3288,-87.8293,47.83,1111122 
DISL,ioos:station:DISL:BSCA:1,2018-03-09T09:30:00Z,30.3288,-87.8293,56.59,1111122 
DISL,ioos:station:DISL:BSCA:1,2018-03-09T10:24:00Z,30.3288,-87.8293,53.74,1111122 
DISL,ioos:station:DISL:BSCA:1,2018-03-09T11:33:00Z,30.3288,-87.8293,53.78,1111122 
DISL,ioos:station:DISL:BSCA:1,2018-03-09T11:53:00Z,30.3288,-87.8293,54.29,1111122 
DISL,ioos:station:DISL:BSCA:1,2018-03-09T13:30:00Z,30.3288,-87.8293,58.23,1111122 
DISL,ioos:station:DISL:BSCA:1,2018-03-09T14:02:00Z,30.3288,-87.8293,50.61,1111122 
DISL,ioos:station:DISL:BSCA:1,2018-03-09T14:34:00Z,30.3288,-87.8293,44.95,1111122 
DISL,ioos:station:DISL:BSCA:1,2018-03-10T00:30:00Z,30.3288,-87.8293,60.63,1111122 
DISL,ioos:station:DISL:BSCA:1,2018-03-10T01:30:00Z,30.3288,-87.8293,62.36,1111122 
DISL,ioos:station:DISL:BSCA:1,2018-03-10T02:30:00Z,30.3288,-87.8293,67.31,1111122 
DISL,ioos:station:DISL:BSCA:1,2018-03-10T03:30:00Z,30.3288,-87.8293,69.89,1111122 
DISL,ioos:station:DISL:BSCA:1,2018-03-10T04:30:00Z,30.3288,-87.8293,71.75,1111122 
DISL,ioos:station:DISL:BSCA:1,2018-03-10T05:30:00Z,30.3288,-87.8293,75.11,1111122 
DISL,ioos:station:DISL:BSCA:1,2018-03-10T06:30:00Z,30.3288,-87.8293,77.01,1111122 
DISL,ioos:station:DISL:BSCA:1,2018-03-10T07:30:00Z,30.3288,-87.8293,76.6,1111122 
DISL,ioos:station:DISL:BSCA:1,2018-03-10T08:30:00Z,30.3288,-87.8293,78.5,1111122 
DISL,ioos:station:DISL:BSCA:1,2018-03-10T09:30:00Z,30.3288,-87.8293,83.5,1111122 
DISL,ioos:station:DISL:BSCA:1,2018-03-10T10:39:00Z,30.3288,-87.8293,91.8,1111122 
DISL,ioos:station:DISL:BSCA:1,2018-03-10T11:30:00Z,30.3288,-87.8293,96.0,1111122 
DISL,ioos:station:DISL:BSCA:1,2018-03-10T12:12:00Z,30.3288,-87.8293,96.1,1111122 
DISL,ioos:station:DISL:BSCA:1,2018-03-10T12:32:00Z,30.3288,-87.8293,96.0,1111122 
DISL,ioos:station:DISL:BSCA:1,2018-03-10T13:04:00Z,30.3288,-87.8293,95.4,1111122 
DISL,ioos:station:DISL:BSCA:1,2018-03-12T00:30:00Z,30.3288,-87.8293,91.2,1111122 
DISL,ioos:station:DISL:BSCA:1,2018-03-12T01:30:00Z,30.3288,-87.8293,96.9,1111122 
DISL,ioos:station:DISL:BSCA:1,2018-03-12T02:34:00Z,30.3288,-87.8293,96.6,1111122 
DISL,ioos:station:DISL:BSCA:1,2018-03-12T07:30:00Z,30.3288,-87.8293,77.92,1111122 
DISL,ioos:station:DISL:BSCA:1,2018-03-12T08:30:00Z,30.3288,-87.8293,71.35,1111122 
DISL,ioos:station:DISL:BSCA:1,2018-03-12T09:30:00Z,30.3288,-87.8293,71.62,1111122 
DISL,ioos:station:DISL:BSCA:1,2018-03-12T10:31:00Z,30.3288,-87.8293,67.47,1111122 
DISL,ioos:station:DISL:BSCA:1,2018-03-12T11:30:00Z,30.3288,-87.8293,75.58,1111122 
DISL,ioos:station:DISL:BSCA:1,2018-03-12T12:30:00Z,30.3288,-87.8293,67.3,1111122 
DISL,ioos:station:DISL:BSCA:1,2018-03-12T13:37:00Z,30.3288,-87.8293,68.59,1111122 
DISL,ioos:station:DISL:BSCA:1,2018-03-12T14:30:00Z,30.3288,-87.8293,68.25,1111122 
DISL,ioos:station:DISL:BSCA:1,2018-03-12T15:43:00Z,30.3288,-87.8293,64.65,1111122 
DISL,ioos:station:DISL:BSCA:1,2018-03-12T16:37:00Z,30.3288,-87.8293,65.43,1111122 
DISL,ioos:station:DISL:BSCA:1,2018-03-12T17:57:00Z,30.3288,-87.8293,54.88,1111122 
DISL,ioos:station:DISL:BSCA:1,2018-03-12T18:30:00Z,30.3288,-87.8293,60.03,1111122 
DISL,ioos:station:DISL:BSCA:1,2018-03-12T19:49:00Z,30.3288,-87.8293,48.63,1111122 
DISL,ioos:station:DISL:BSCA:1,2018-03-12T20:57:00Z,30.3288,-87.8293,42.69,1111122 
DISL,ioos:station:DISL:BSCA:1,2018-03-12T21:43:00Z,30.3288,-87.8293,41.0,1111122 
DISL,ioos:station:DISL:BSCA:1,2018-03-12T22:30:00Z,30.3288,-87.8293,36.79,1111122 
DISL,ioos:station:DISL:BSCA:1,2018-03-12T23:30:00Z,30.3288,-87.8293,32.82,1111122 
DISL,ioos:station:DISL:BSCA:1,2018-03-13T00:30:00Z,30.3288,-87.8293,42.15,1111122 
DISL,ioos:station:DISL:BSCA:1,2018-03-13T01:30:00Z,30.3288,-87.8293,40.66,1111122 
DISL,ioos:station:DISL:BSCA:1,2018-03-13T02:31:00Z,30.3288,-87.8293,47.78,1111122 
DISL,ioos:station:DISL:BSCA:1,2018-03-13T03:30:00Z,30.3288,-87.8293,49.32,1111122 
DISL,ioos:station:DISL:BSCA:1,2018-03-13T04:30:00Z,30.3288,-87.8293,56.31,1111122 
DISL,ioos:station:DISL:BSCA:1,2018-03-13T05:30:00Z,30.3288,-87.8293,58.45,1111122 
DISL,ioos:station:DISL:BSCA:1,2018-03-13T06:31:00Z,30.3288,-87.8293,56.04,1111122 
DISL,ioos:station:DISL:BSCA:1,2018-03-13T07:30:00Z,30.3288,-87.8293,62.28,1111122 
DISL,ioos:station:DISL:BSCA:1,2018-03-13T08:31:00Z,30.3288,-87.8293,67.91,1111122 
DISL,ioos:station:DISL:BSCA:1,2018-03-13T09:30:00Z,30.3288,-87.8293,70.29,1111122 
DISL,ioos:station:DISL:BSCA:1,2018-03-13T10:30:00Z,30.3288,-87.8293,72.13,1111122 
DISL,ioos:station:DISL:BSCA:1,2018-03-13T12:03:00Z,30.3288,-87.8293,74.24,1111122 
DISL,ioos:station:DISL:BSCA:1,2018-03-13T13:00:00Z,30.3288,-87.8293,76.21,1111122 
DISL,ioos:station:DISL:BSCA:1,2018-03-13T14:01:00Z,30.3288,-87.8293,70.41,1111122 
DISL,ioos:station:DISL:BSCA:1,2018-03-14T03:30:00Z,30.3288,-87.8293,55.6,1111122 
DISL,ioos:station:DISL:BSCA:1,2018-03-14T05:00:00Z,30.3288,-87.8293,55.36,1111122 
DISL,ioos:station:DISL:BSCA:1,2018-03-14T06:00:00Z,30.3288,-87.8293,53.19,1111122 
DISL,ioos:station:DISL:BSCA:1,2018-03-14T06:31:00Z,30.3288,-87.8293,54.58,1111122 
DISL,ioos:station:DISL:BSCA:1,2018-03-14T08:00:00Z,30.3288,-87.8293,58.89,1111122 
DISL,ioos:station:DISL:BSCA:1,2018-03-14T09:01:00Z,30.3288,-87.8293,60.48,1111122 
DISL,ioos:station:DISL:BSCA:1,2018-03-14T10:00:00Z,30.3288,-87.8293,62.56,1111122 
DISL,ioos:station:DISL:BSCA:1,2018-03-14T11:01:00Z,30.3288,-87.8293,64.36,1111122 
DISL,ioos:station:DISL:BSCA:1,2018-03-14T11:33:00Z,30.3288,-87.8293,66.87,1111122 
DISL,ioos:station:DISL:BSCA:1,2018-03-14T12:30:00Z,30.3288,-87.8293,70.17,1111122 
DISL,ioos:station:DISL:BSCA:1,2018-03-14T17:30:00Z,30.3288,-87.8293,50.73,1111122 
DISL,ioos:station:DISL:BSCA:1,2018-03-14T18:02:00Z,30.3288,-87.8293,36.49,1111122 
DISL,ioos:station:DISL:BSCA:1,2018-03-15T01:00:00Z,30.3288,-87.8293,54.39,1111122 
DISL,ioos:station:DISL:BSCA:1,2018-03-15T02:00:00Z,30.3288,-87.8293,62.43,1111122 
DISL,ioos:station:DISL:BSCA:1,2018-03-15T03:00:00Z,30.3288,-87.8293,73.58,1111122 
DISL,ioos:station:DISL:BSCA:1,2018-03-15T04:01:00Z,30.3288,-87.8293,83.2,1111122 
DISL,ioos:station:DISL:BSCA:1,2018-03-15T05:00:00Z,30.3288,-87.8293,83.9,1111122 
DISL,ioos:station:DISL:BSCA:1,2018-03-15T06:00:00Z,30.3288,-87.8293,85.7,1111122 
DISL,ioos:station:DISL:BSCA:1,2018-03-15T06:46:00Z,30.3288,-87.8293,81.4,1111122 
DISL,ioos:station:DISL:BSCA:1,2018-03-15T08:00:00Z,30.3288,-87.8293,71.05,1111122 
DISL,ioos:station:DISL:BSCA:1,2018-03-15T08:32:00Z,30.3288,-87.8293,57.54,1111122 
DISL,ioos:station:DISL:BSCA:1,2018-03-15T13:00:00Z,30.3288,-87.8293,52.52,1111122 
DISL,ioos:station:DISL:BSCA:1,2018-03-15T14:00:00Z,30.3288,-87.8293,58.34,1111122 
DISL,ioos:station:DISL:BSCA:1,2018-03-15T15:00:00Z,30.3288,-87.8293,59.24,1111122 
DISL,ioos:station:DISL:BSCA:1,2018-03-15T16:00:00Z,30.3288,-87.8293,36.93,1111122 
DISL,ioos:station:DISL:BSCA:1,2018-03-16T00:00:00Z,30.3288,-87.8293,47.36,1111122 
DISL,ioos:station:DISL:BSCA:1,2018-03-16T01:00:00Z,30.3288,-87.8293,55.75,1111122 
DISL,ioos:station:DISL:BSCA:1,2018-03-16T02:00:00Z,30.3288,-87.8293,59.04,1111122 
DISL,ioos:station:DISL:BSCA:1,2018-03-16T03:00:00Z,30.3288,-87.8293,62.29,1111122 
DISL,ioos:station:DISL:BSCA:1,2018-03-16T04:00:00Z,30.3288,-87.8293,68.84,1111122 
DISL,ioos:station:DISL:BSCA:1,2018-03-16T05:00:00Z,30.3288,-87.8293,71.14,1111122 
DISL,ioos:station:DISL:BSCA:1,2018-03-16T06:00:00Z,30.3288,-87.8293,71.45,1111122 
DISL,ioos:station:DISL:BSCA:1,2018-03-16T06:30:00Z,30.3288,-87.8293,72.43,1111122 
DISL,ioos:station:DISL:BSCA:1,2018-03-16T08:00:00Z,30.3288,-87.8293,78.33,1111122 
DISL,ioos:station:DISL:BSCA:1,2018-03-16T09:00:00Z,30.3288,-87.8293,86.3,1111122 
DISL,ioos:station:DISL:BSCA:1,2018-03-16T10:00:00Z,30.3288,-87.8293,94.1,1111122 
DISL,ioos:station:DISL:BSCA:1,2018-03-16T11:00:00Z,30.3288,-87.8293,90.4,1111122 
DISL,ioos:station:DISL:BSCA:1,2018-03-16T12:00:00Z,30.3288,-87.8293,93.8,1111122 
DISL,ioos:station:DISL:BSCA:1,2018-03-16T13:00:00Z,30.3288,-87.8293,90.8,1111122 
DISL,ioos:station:DISL:BSCA:1,2018-03-16T14:00:00Z,30.3288,-87.8293,82.1,1111122 
DISL,ioos:station:DISL:BSCA:1,2018-03-16T15:00:00Z,30.3288,-87.8293,79.66,1111122 
DISL,ioos:station:DISL:BSCA:1,2018-03-16T16:00:00Z,30.3288,-87.8293,76.17,1111122 
DISL,ioos:station:DISL:BSCA:1,2018-03-16T17:00:00Z,30.3288,-87.8293,79.9,1111122 
DISL,ioos:station:DISL:BSCA:1,2018-03-16T18:00:00Z,30.3288,-87.8293,92.4,1111122 
DISL,ioos:station:DISL:BSCA:1,2018-03-16T19:00:00Z,30.3288,-87.8293,99.2,1111122 
DISL,ioos:station:DISL:BSCA:1,2018-03-16T20:46:00Z,30.3288,-87.8293,99.5,1111122 
DISL,ioos:station:DISL:BSCA:1,2018-03-18T23:00:00Z,30.3288,-87.8293,99.4,1111122 
DISL,ioos:station:DISL:BSCA:1,2018-03-20T11:01:00Z,30.3288,-87.8293,-7999.0,1111122 
DISL,ioos:station:DISL:BSCA:1,2018-03-20T11:36:00Z,30.3288,-87.8293,-7999.0,1111122 
DISL,ioos:station:DISL:BSCA:1,2018-03-20T12:31:00Z,30.3288,-87.8293,-7999.0,1111122 
DISL,ioos:station:DISL:BSCA:1,2018-03-20T13:03:00Z,30.3288,-87.8293,-7999.0,1111122 
DISL,ioos:station:DISL:BSCA:1,2018-03-20T19:01:00Z,30.3288,-87.8293,54.95,1111122 
DISL,ioos:station:DISL:BSCA:1,2018-03-20T20:01:00Z,30.3288,-87.8293,57.63,1111122 
DISL,ioos:station:DISL:BSCA:1,2018-03-20T21:01:00Z,30.3288,-87.8293,54.64,1111122 
DISL,ioos:station:DISL:BSCA:1,2018-03-20T22:01:00Z,30.3288,-87.8293,46.92,1111122 
DISL,ioos:station:DISL:BSCA:1,2018-03-20T22:53:00Z,30.3288,-87.8293,48.81,1111122 
DISL,ioos:station:DISL:BSCA:1,2018-03-20T23:31:00Z,30.3288,-87.8293,52.71,1111122 
DISL,ioos:station:DISL:BSCA:1,2018-03-21T00:31:00Z,30.3288,-87.8293,51.74,1111122 
DISL,ioos:station:DISL:BSCA:1,2018-03-21T01:31:00Z,30.3288,-87.8293,55.65,1111122 
DISL,ioos:station:DISL:BSCA:1,2018-03-21T02:31:00Z,30.3288,-87.8293,64.06,1111122 
DISL,ioos:station:DISL:BSCA:1,2018-03-21T03:31:00Z,30.3288,-87.8293,61.41,1111122 
DISL,ioos:station:DISL:BSCA:1,2018-03-21T04:31:00Z,30.3288,-87.8293,56.09,1111122 
DISL,ioos:station:DISL:BSCA:1,2018-03-21T05:31:00Z,30.3288,-87.8293,58.46,1111122 
DISL,ioos:station:DISL:BSCA:1,2018-03-21T06:31:00Z,30.3288,-87.8293,61.21,1111122 
DISL,ioos:station:DISL:BSCA:1,2018-03-21T07:31:00Z,30.3288,-87.8293,63.12,1111122 
DISL,ioos:station:DISL:BSCA:1,2018-03-21T08:31:00Z,30.3288,-87.8293,65.81,1111122 
DISL,ioos:station:DISL:BSCA:1,2018-03-21T09:31:00Z,30.3288,-87.8293,68.55,1111122 
DISL,ioos:station:DISL:BSCA:1,2018-03-21T10:31:00Z,30.3288,-87.8293,60.38,1111122 
DISL,ioos:station:DISL:BSCA:1,2018-03-21T11:31:00Z,30.3288,-87.8293,67.46,1111122 
DISL,ioos:station:DISL:BSCA:1,2018-03-21T12:56:00Z,30.3288,-87.8293,65.4,1111122 
DISL,ioos:station:DISL:BSCA:1,2018-03-21T14:01:00Z,30.3288,-87.8293,65.68,1111122 
DISL,ioos:station:DISL:BSCA:1,2018-03-21T15:01:00Z,30.3288,-87.8293,67.41,1111122 
DISL,ioos:station:DISL:BSCA:1,2018-03-21T15:31:00Z,30.3288,-87.8293,63.61,1111122 
DISL,ioos:station:DISL:BSCA:1,2018-03-21T17:01:00Z,30.3288,-87.8293,52.02,1111122 
DISL,ioos:station:DISL:BSCA:1,2018-03-21T18:31:00Z,30.3288,-87.8293,41.3,1111122 
DISL,ioos:station:DISL:BSCA:1,2018-03-21T20:01:00Z,30.3288,-87.8293,39.93,1111122 
DISL,ioos:station:DISL:BSCA:1,2018-03-21T21:01:00Z,30.3288,-87.8293,30.98,1111122 
DISL,ioos:station:DISL:BSCA:1,2018-03-21T22:01:00Z,30.3288,-87.8293,-7999.0,1111122 
DISL,ioos:station:DISL:BSCA:1,2018-03-21T23:01:00Z,30.3288,-87.8293,-7999.0,1111122 
DISL,ioos:station:DISL:BSCA:1,2018-03-21T23:31:00Z,30.3288,-87.8293,-7999.0,1111122 
DISL,ioos:station:DISL:BSCA:1,2018-03-22T00:38:00Z,30.3288,-87.8293,-7999.0,1111122 
DISL,ioos:station:DISL:BSCA:1,2018-03-22T01:31:00Z,30.3288,-87.8293,-7999.0,1111122 
DISL,ioos:station:DISL:BSCA:1,2018-03-22T02:31:00Z,30.3288,-87.8293,-7999.0,1111122 
DISL,ioos:station:DISL:BSCA:1,2018-03-22T03:31:00Z,30.3288,-87.8293,-7999.0,1111122 
DISL,ioos:station:DISL:BSCA:1,2018-03-22T04:31:00Z,30.3288,-87.8293,-7999.0,1111122 
DISL,ioos:station:DISL:BSCA:1,2018-03-22T05:31:00Z,30.3288,-87.8293,-7999.0,1111122 
DISL,ioos:station:DISL:BSCA:1,2018-03-22T06:31:00Z,30.3288,-87.8293,-7999.0,1111122 
DISL,ioos:station:DISL:BSCA:1,2018-03-22T07:31:00Z,30.3288,-87.8293,-7999.0,1111122 
DISL,ioos:station:DISL:BSCA:1,2018-03-22T08:31:00Z,30.3288,-87.8293,-7999.0,1111122 
DISL,ioos:station:DISL:BSCA:1,2018-03-22T09:31:00Z,30.3288,-87.8293,-7999.0,1111122 
DISL,ioos:station:DISL:BSCA:1,2018-03-22T10:31:00Z,30.3288,-87.8293,-7999.0,1111122 
DISL,ioos:station:DISL:BSCA:1,2018-03-22T12:01:00Z,30.3288,-87.8293,-7999.0,1111122 
DISL,ioos:station:DISL:BSCA:1,2018-03-22T12:31:00Z,30.3288,-87.8293,-7999.0,1111122 
DISL,ioos:station:DISL:BSCA:1,2018-03-22T13:31:00Z,30.3288,-87.8293,-7999.0,1111122 
DISL,ioos:station:DISL:BSCA:1,2018-03-22T17:01:00Z,30.3288,-87.8293,-7999.0,1111122 
DISL,ioos:station:DISL:BSCA:1,2018-03-22T17:31:00Z,30.3288,-87.8293,-7999.0,1111122 
DISL,ioos:station:DISL:BSCA:1,2018-03-22T19:01:00Z,30.3288,-87.8293,-7999.0,1111122 
DISL,ioos:station:DISL:BSCA:1,2018-03-22T19:31:00Z,30.3288,-87.8293,-7999.0,1111122 
DISL,ioos:station:DISL:BSCA:1,2018-03-22T20:31:00Z,30.3288,-87.8293,-7999.0,1111122 
DISL,ioos:station:DISL:BSCA:1,2018-03-22T22:01:00Z,30.3288,-87.8293,-7999.0,1111122 
DISL,ioos:station:DISL:BSCA:1,2018-03-22T22:40:00Z,30.3288,-87.8293,-7999.0,1111122 
DISL,ioos:station:DISL:BSCA:1,2018-03-22T23:31:00Z,30.3288,-87.8293,-7999.0,1111122 
DISL,ioos:station:DISL:BSCA:1,2018-03-23T00:31:00Z,30.3288,-87.8293,-7999.0,1111122 
DISL,ioos:station:DISL:BSCA:1,2018-03-23T01:31:00Z,30.3288,-87.8293,-7999.0,1111122 
DISL,ioos:station:DISL:BSCA:1,2018-03-23T02:31:00Z,30.3288,-87.8293,-7999.0,1111122 
DISL,ioos:station:DISL:BSCA:1,2018-03-23T03:31:00Z,30.3288,-87.8293,-7999.0,1111122 
DISL,ioos:station:DISL:BSCA:1,2018-03-23T04:31:00Z,30.3288,-87.8293,-7999.0,1111122 
DISL,ioos:station:DISL:BSCA:1,2018-03-23T05:31:00Z,30.3288,-87.8293,-7999.0,1111122 
DISL,ioos:station:DISL:BSCA:1,2018-03-23T06:31:00Z,30.3288,-87.8293,-7999.0,1111122 
DISL,ioos:station:DISL:BSCA:1,2018-03-23T07:31:00Z,30.3288,-87.8293,-7999.0,1111122 
DISL,ioos:station:DISL:BSCA:1,2018-03-23T08:31:00Z,30.3288,-87.8293,-7999.0,1111122 
DISL,ioos:station:DISL:BSCA:1,2018-03-23T09:54:00Z,30.3288,-87.8293,-7999.0,1111122 
DISL,ioos:station:DISL:BSCA:1,2018-03-23T10:56:00Z,30.3288,-87.8293,-7999.0,1111122 
DISL,ioos:station:DISL:BSCA:1,2018-03-23T11:49:00Z,30.3288,-87.8293,-7999.0,1111122 
DISL,ioos:station:DISL:BSCA:1,2018-03-23T12:31:00Z,30.3288,-87.8293,-7999.0,1111122 
DISL,ioos:station:DISL:BSCA:1,2018-03-23T13:55:00Z,30.3288,-87.8293,-7999.0,1111122 
DISL,ioos:station:DISL:BSCA:1,2018-03-23T15:01:00Z,30.3288,-87.8293,-7999.0,1111122 
DISL,ioos:station:DISL:BSCA:1,2018-03-23T15:31:00Z,30.3288,-87.8293,-7999.0,1111122 
DISL,ioos:station:DISL:BSCA:1,2018-03-23T16:01:00Z,30.3288,-87.8293,-7999.0,1111122 
DISL,ioos:station:DISL:BSCA:1,2018-03-23T17:56:00Z,30.3288,-87.8293,-7999.0,1111122 
DISL,ioos:station:DISL:BSCA:1,2018-03-23T19:01:00Z,30.3288,-87.8293,-7999.0,1111122 
DISL,ioos:station:DISL:BSCA:1,2018-03-23T19:51:00Z,30.3288,-87.8293,-7999.0,1111122 
DISL,ioos:station:DISL:BSCA:1,2018-03-23T20:31:00Z,30.3288,-87.8293,-7999.0,1111122 
DISL,ioos:station:DISL:BSCA:1,2018-03-23T22:01:00Z,30.3288,-87.8293,-7999.0,1111122 
DISL,ioos:station:DISL:BSCA:1,2018-03-23T23:01:00Z,30.3288,-87.8293,-7999.0,1111122 